KB2SKP Weather Reports


Display with metric or nautical units.
time (UTC)temp
F
wind
direction
speed
MPH
gust
MPH
rain 1hr
in
rain 24hr
in
rain mn
in
humidity
%
barometer
mb
20260905093522 72 329 0.0 2.0 0.00 0.00 0.00 95 1006.4
20260905093429 72 245 2.0 2.0 0.00 0.00 0.00 95 1006.6
20260905093019 72 245 2.0 2.0 0.00 0.00 0.00 95 1006.6
20260905092928 72 269 1.0 2.0 0.00 0.00 0.00 95 1006.6
20260905092519 72 269 1.0 2.0 0.00 0.00 0.00 95 1006.6
20260905092015 72 283 0.0 2.0 0.00 0.00 0.00 94 1006.4
20260905091513 73 275 1.0 1.0 0.00 0.00 0.00 94 1006.4
20260905091417 73 299 0.0 1.0 0.00 0.00 0.00 94 1006.5
20260905091008 73 299 0.0 1.0 0.00 0.00 0.00 94 1006.5
20260905090503 73 252 0.0 1.0 0.00 0.00 0.00 94 1006.4
20260905090002 73 280 1.0 2.0 0.00 0.00 0.00 93 1006.5
20260905085501 73 283 0.0 2.0 0.00 0.00 0.00 93 1006.5
20260905085405 73 322 0.0 2.0 0.00 0.00 0.00 93 1006.5
20260905084957 73 322 0.0 2.0 0.00 0.00 0.00 93 1006.5
20260905084456 73 334 0.0 2.0 0.00 0.00 0.00 92 1006.4
20260905083952 74 256 0.0 1.0 0.00 0.00 0.00 92 1006.4
20260905083447 74 305 0.0 2.0 0.00 0.00 0.00 92 1006.4
20260905083353 74 308 2.0 4.0 0.00 0.00 0.00 92 1006.7
20260905082943 74 308 2.0 4.0 0.00 0.00 0.00 92 1006.7
20260905082439 73 339 3.0 3.0 0.00 0.00 0.00 93 1006.6
20260905081934 73 279 1.0 4.0 0.00 0.00 0.00 94 1006.6
20260905081831 73 326 1.0 2.0 0.00 0.00 0.00 94 1006.6
20260905081434 73 326 1.0 2.0 0.00 0.00 0.00 94 1006.6
20260905081331 73 346 1.0 3.0 0.00 0.00 0.00 94 1006.5
20260905080932 73 346 1.0 3.0 0.00 0.00 0.00 94 1006.5
20260905080427 73 319 2.0 4.0 0.00 0.00 0.00 95 1006.7
20260905080325 72 357 1.0 3.0 0.00 0.00 0.00 97 1006.5
20260905075926 72 357 1.0 3.0 0.00 0.00 0.00 97 1006.5
20260905075830 72 299 0.0 2.0 0.00 0.00 0.00 97 1006.8
20260905075421 72 299 0.0 2.0 0.00 0.00 0.00 97 1006.8
20260905075329 72 329 1.0 2.0 0.00 0.00 0.00 97 1006.7
20260905074920 72 329 1.0 2.0 0.00 0.00 0.00 97 1006.7
20260905074824 73 299 0.0 2.0 0.00 0.00 0.00 97 1006.6
20260905074416 73 299 0.0 2.0 0.00 0.00 0.00 97 1006.6
20260905073911 73 248 0.0 1.0 0.00 0.00 0.00 97 1006.8
20260905073803 73 303 3.0 3.0 0.00 0.00 0.00 98 1006.7
20260905073406 73 303 3.0 3.0 0.00 0.00 0.00 98 1006.7
20260905073312 73 195 0.0 1.0 0.00 0.00 0.00 97 1006.9
20260905072902 73 195 0.0 1.0 0.00 0.00 0.00 97 1006.9
20260905072356 73 291 0.0 1.0 0.00 0.00 0.00 97 1007.0
20260905072305 73 269 0.0 1.0 0.00 0.00 0.00 97 1006.8
20260905071852 73 269 0.0 1.0 0.00 0.00 0.00 97 1006.8
20260905071343 73 323 0.0 1.0 0.00 0.00 0.00 97 1006.8
20260905071250 73 10 0.0 3.0 0.00 0.00 0.00 97 1006.9
20260905070843 73 10 0.0 3.0 0.00 0.00 0.00 97 1006.9
20260905070740 73 203 0.0 1.0 0.00 0.00 0.00 97 1007.1
20260905070339 73 203 0.0 1.0 0.00 0.00 0.00 97 1007.1
20260905065838 73 202 0.0 2.0 0.00 0.00 0.00 97 1007.0
20260905065336 73 269 0.0 2.0 0.00 0.00 0.00 97 1007.3
20260905064832 73 199 0.0 2.0 0.00 0.00 0.00 97 1007.0
20260905064738 73 242 0.0 3.0 0.00 0.00 0.00 97 1007.0
20260905064328 73 242 0.0 3.0 0.00 0.00 0.00 97 1007.0
20260905063826 73 330 0.0 3.0 0.00 0.00 0.00 97 1007.3
20260905063727 73 299 0.0 2.0 0.00 0.00 0.00 97 1007.2
20260905063322 73 299 0.0 2.0 0.00 0.00 0.00 97 1007.2
20260905063222 73 330 1.0 2.0 0.00 0.00 0.00 97 1007.2
20260905062819 73 330 1.0 2.0 0.00 0.00 0.00 97 1007.2
20260905062313 73 304 0.0 2.0 0.00 0.00 0.00 96 1007.2
20260905062215 74 274 2.0 3.0 0.00 0.00 0.00 96 1007.4
20260905061808 74 274 2.0 3.0 0.00 0.00 0.00 96 1007.4
20260905061710 73 299 3.0 4.0 0.00 0.00 0.00 96 1007.2
20260905061308 73 299 3.0 4.0 0.00 0.00 0.00 96 1007.2
20260905060802 73 245 1.0 1.0 0.00 0.00 0.00 96 1007.3
20260905060709 73 315 0.0 2.0 0.00 0.00 0.00 96 1007.3
20260905060259 73 315 0.0 2.0 0.00 0.00 0.00 96 1007.3
20260905055757 74 198 0.0 1.0 0.00 0.00 0.00 96 1007.4
20260905055703 74 271 1.0 3.0 0.00 0.00 0.00 96 1007.5
20260905055252 74 271 1.0 3.0 0.00 0.00 0.00 96 1007.5
20260905055158 73 230 1.0 2.0 0.00 0.00 0.00 96 1007.5
20260905054747 73 230 1.0 2.0 0.00 0.00 0.00 96 1007.5
20260905054244 74 302 0.0 2.0 0.00 0.00 0.00 95 1007.6
20260905054147 74 269 1.0 1.0 0.00 0.00 0.00 95 1007.7
20260905053737 74 269 1.0 1.0 0.00 0.00 0.00 95 1007.7
20260905053233 74 300 1.0 3.0 0.00 0.00 0.00 95 1007.9
20260905052732 74 282 0.0 1.0 0.00 0.00 0.00 96 1007.9
20260905052227 74 290 0.0 2.0 0.00 0.00 0.00 95 1007.8
20260905051726 74 240 2.0 3.0 0.00 0.00 0.00 95 1008.1
20260905051223 74 205 0.0 4.0 0.00 0.00 0.00 95 1008.1
20260905050719 74 307 0.0 4.0 0.00 0.00 0.00 96 1008.0
20260905050216 74 283 1.0 2.0 0.00 0.00 0.00 95 1008.1
20260905045715 74 282 0.0 2.0 0.00 0.00 0.00 95 1008.2
20260905045211 75 302 2.0 4.0 0.00 0.00 0.00 95 1008.0
20260905045112 74 0 0.0 3.0 0.00 0.00 0.00 95 1008.4
20260905044706 74 0 0.0 3.0 0.00 0.00 0.00 95 1008.4
20260905044612 74 263 1.0 2.0 0.00 0.00 0.00 95 1008.3
20260905044202 74 263 1.0 2.0 0.00 0.00 0.00 95 1008.3
20260905043700 74 218 0.0 2.0 0.00 0.00 0.00 95 1008.2
20260905043155 75 269 1.0 3.0 0.00 0.00 0.00 95 1008.4
20260905043105 74 262 2.0 2.0 0.00 0.00 0.00 96 1008.3
20260905042654 74 262 2.0 2.0 0.00 0.00 0.00 96 1008.3
20260905042148 74 297 1.0 2.0 0.00 0.00 0.00 95 1008.5
20260905042054 75 166 0.0 1.0 0.00 0.00 0.00 95 1008.5
20260905041644 75 166 0.0 1.0 0.00 0.00 0.00 95 1008.5
20260905041549 75 283 1.0 3.0 0.00 0.00 0.00 95 1008.5
20260905041139 75 283 1.0 3.0 0.00 0.00 0.00 95 1008.5
20260905041043 74 23 0.0 3.0 0.00 0.00 0.00 96 1008.5
20260905040634 74 23 0.0 3.0 0.00 0.00 0.00 96 1008.5
20260905040528 74 240 0.0 2.0 0.00 0.00 0.00 95 1008.5
20260905040133 74 240 0.0 2.0 0.00 0.00 0.00 95 1008.5
20260905040032 74 291 0.0 2.0 0.00 2.13 2.13 95 1008.6
20260905035628 74 291 0.0 2.0 0.00 2.13 2.13 95 1008.6
20260905035532 74 297 1.0 3.0 0.00 2.13 2.13 95 1008.5
20260905035125 74 297 1.0 3.0 0.00 2.13 2.13 95 1008.5
20260905035026 74 275 0.0 2.0 0.00 2.13 2.13 95 1008.7
20260905034620 74 275 0.0 2.0 0.00 2.13 2.13 95 1008.7
20260905034120 74 50 0.0 1.0 0.00 2.13 2.13 95 1008.5
20260905033614 74 327 2.0 2.0 0.00 2.13 2.13 95 1008.6
20260905033520 74 208 1.0 2.0 0.00 2.13 2.13 95 1008.5
20260905033110 74 208 1.0 2.0 0.00 2.13 2.13 95 1008.5
20260905032609 74 312 0.0 2.0 0.00 2.13 2.13 94 1008.5
20260905032104 74 275 0.0 2.0 0.00 2.13 2.13 94 1008.5
20260905031600 74 305 0.0 3.0 0.00 2.13 2.13 94 1008.5
20260905031100 74 303 2.0 4.0 0.00 2.13 2.13 95 1008.7
20260905030555 73 236 0.0 1.0 0.00 2.13 2.13 95 1008.4
20260905030050 74 282 0.0 3.0 0.00 2.13 2.13 95 1008.6
20260905025545 74 205 0.0 2.0 0.00 2.13 2.13 95 1008.8
20260905025441 74 202 0.0 2.0 0.00 2.13 2.13 95 1008.4
20260905025041 74 202 0.0 2.0 0.00 2.13 2.13 95 1008.4
20260905024536 74 227 1.0 1.0 0.00 2.13 2.13 94 1008.8
20260905024032 74 8 0.0 2.0 0.00 2.13 2.13 94 1008.9
20260905023527 74 298 0.0 1.0 0.00 2.13 2.13 93 1009.0
20260905023027 74 301 0.0 1.0 0.00 2.13 2.13 92 1009.1
20260905022929 75 242 0.0 2.0 0.00 2.13 2.13 92 1008.7
20260905022521 75 242 0.0 2.0 0.00 2.13 2.13 92 1008.7
20260905022016 75 335 0.0 2.0 0.00 2.13 2.13 92 1008.8
20260905021918 75 284 2.0 3.0 0.00 2.13 2.13 92 1009.1
20260905021516 75 284 2.0 3.0 0.00 2.13 2.13 92 1009.1
20260905021417 75 276 1.0 2.0 0.00 2.13 2.13 92 1009.0
20260905021011 75 276 1.0 2.0 0.00 2.13 2.13 92 1009.0
20260905020506 75 335 0.0 2.0 0.00 2.13 2.13 91 1008.9
20260905020006 75 271 0.0 4.0 0.00 2.13 2.13 92 1008.8
20260905015504 75 275 0.0 2.0 0.00 2.13 2.13 93 1008.7
20260905015003 75 310 0.0 2.0 0.00 2.13 2.13 93 1008.6
20260905014900 75 263 1.0 2.0 0.00 2.13 2.13 93 1008.7
20260905014458 75 263 1.0 2.0 0.00 2.13 2.13 93 1008.7
20260905013954 75 281 2.0 4.0 0.00 2.13 2.13 92 1008.8
20260905013859 74 246 0.0 2.0 0.00 2.13 2.13 92 1008.7
20260905013450 74 246 0.0 2.0 0.00 2.13 2.13 92 1008.7
20260905013354 75 207 0.0 2.0 0.00 2.13 2.13 92 1008.8
20260905012946 75 207 0.0 2.0 0.00 2.13 2.13 92 1008.8
20260905012440 74 245 0.0 2.0 0.00 2.13 2.13 93 1008.6
20260905012348 74 278 0.0 2.0 0.00 2.13 2.13 94 1008.4
20260905011937 74 278 0.0 2.0 0.00 2.13 2.13 94 1008.4
20260905011832 75 212 0.0 1.0 0.00 2.13 2.13 94 1008.5
20260905011433 75 212 0.0 1.0 0.00 2.13 2.13 94 1008.5
20260905011332 75 233 0.0 2.0 0.00 2.13 2.13 94 1008.4
20260905010928 75 233 0.0 2.0 0.00 2.13 2.13 94 1008.4
20260905010423 75 244 1.0 2.0 0.00 2.13 2.13 94 1008.4
20260905005919 75 266 1.0 2.0 0.00 2.13 2.13 93 1008.5
20260905005825 75 246 1.0 2.0 0.00 2.13 2.13 92 1008.6
20260905005415 75 246 1.0 2.0 0.00 2.13 2.13 92 1008.6
20260905005320 76 187 0.0 1.0 0.00 2.13 2.13 92 1008.4
20260905004910 76 187 0.0 1.0 0.00 2.13 2.13 92 1008.4
20260905004819 76 238 0.0 2.0 0.00 2.13 2.13 92 1008.4
20260905004410 76 238 0.0 2.0 0.00 2.13 2.13 92 1008.4
20260905003905 76 228 0.0 1.0 0.00 2.13 2.13 90 1008.7
20260905003400 76 261 1.0 3.0 0.00 2.13 2.13 90 1008.7
20260905002856 76 264 2.0 3.0 0.00 2.13 2.13 90 1008.6
20260905002350 76 291 2.0 4.0 0.00 2.13 2.13 92 1008.7
20260905001845 75 250 0.0 2.0 0.00 2.13 2.13 92 1008.6
20260905001344 75 321 2.0 3.0 0.00 2.13 2.13 92 1008.4
20260905000839 76 283 0.0 2.0 0.00 2.13 2.13 92 1008.0
20260905000335 76 205 0.0 2.0 0.00 2.13 2.13 91 1008.1
20260904235831 76 262 1.0 2.0 0.00 2.13 2.13 91 1008.3
20260904235326 76 233 1.0 2.0 0.00 2.13 2.13 91 1007.9
20260904234821 76 269 0.0 2.0 0.00 2.13 2.13 89 1008.1
20260904234321 77 278 3.0 4.0 0.00 2.13 2.13 90 1008.0
20260904233817 76 349 1.0 2.0 0.00 2.13 2.13 92 1007.7
20260904233313 76 234 2.0 2.0 0.00 2.13 2.13 91 1007.6
20260904232809 76 188 0.0 1.0 0.00 2.13 2.13 91 1007.4
20260904232306 76 256 0.0 2.0 0.00 2.13 2.13 91 1007.6
20260904231801 77 240 0.0 2.0 0.00 2.13 2.13 90 1007.6
20260904231255 77 246 0.0 1.0 0.00 2.13 2.13 89 1007.4
20260904230751 78 165 0.0 2.0 0.00 2.13 2.13 89 1007.3
20260904230249 78 232 0.0 3.0 0.00 2.13 2.13 86 1007.7
20260904225744 78 269 1.0 2.0 0.00 2.13 2.13 85 1007.9
20260904225238 79 301 1.0 1.0 0.00 2.13 2.13 86 1007.8
20260904224737 79 299 1.0 3.0 0.00 2.13 2.13 83 1007.6
20260904224233 80 213 0.0 1.0 0.00 2.13 2.13 85 1007.8
20260904223732 81 309 1.0 3.0 0.00 2.13 2.13 75 1008.2
20260904223227 81 281 2.0 3.0 0.00 2.13 2.13 76 1008.2
20260904222723 81 340 0.0 2.0 0.00 2.13 2.13 85 1008.5
20260904222218 81 266 1.0 2.0 0.00 2.13 2.13 86 1008.4
20260904221718 81 235 1.0 2.0 0.00 2.13 2.13 86 1009.0
20260904221213 81 275 0.0 3.0 0.00 2.13 2.13 87 1008.9
20260904220707 81 287 3.0 3.0 0.00 2.13 2.13 92 1009.0
20260904220202 81 251 0.0 1.0 0.00 2.13 2.13 91 1009.0
20260904215702 82 222 1.0 3.0 0.00 2.13 2.13 89 1009.1
20260904215158 81 309 3.0 3.0 0.00 2.13 2.13 90 1009.1
20260904214653 81 240 0.0 2.0 0.00 2.13 2.13 90 1008.8
20260904214148 81 253 0.0 2.0 0.00 2.13 2.13 89 1008.7
20260904213646 82 252 0.0 2.0 0.00 2.13 2.13 88 1008.9
20260904213143 82 236 1.0 2.0 0.00 2.13 2.13 88 1009.0
20260904212638 82 309 0.0 2.0 0.00 2.13 2.13 88 1008.8
20260904212133 83 339 0.0 2.0 0.00 2.13 2.13 87 1008.5
20260904211632 83 283 0.0 1.0 0.00 2.13 2.13 86 1008.2
20260904211127 84 223 0.0 2.0 0.00 2.13 2.13 86 1008.5
20260904210621 85 284 0.0 2.0 0.00 2.13 2.13 82 1008.5
20260904210117 85 295 3.0 4.0 0.00 2.13 2.13 82 1008.9
20260904205607 84 286 2.0 3.0 0.00 2.13 2.13 84 1008.6
20260904205103 84 306 1.0 2.0 0.00 2.13 2.13 84 1008.4
20260904204559 84 198 0.0 1.0 0.00 2.13 2.13 83 1008.3
20260904204055 85 259 0.0 1.0 0.00 2.13 2.13 83 1008.3
20260904203550 86 297 0.0 3.0 0.00 2.13 2.13 81 1008.5
20260904203047 85 244 0.0 1.0 0.00 2.13 2.13 79 1008.6
20260904202542 86 286 0.0 3.0 0.00 2.13 2.13 79 1008.3
20260904202038 86 263 1.0 1.0 0.00 2.13 2.13 78 1008.3
20260904201534 86 231 0.0 2.0 0.00 2.13 2.13 78 1008.3
20260904201028 88 237 0.0 2.0 0.00 2.13 2.13 73 1008.2
20260904200527 88 257 0.0 2.0 0.00 2.13 2.13 68 1008.5
20260904200023 88 130 0.0 2.0 0.00 2.13 2.13 68 1008.6
20260904195521 89 233 0.0 3.0 0.00 2.13 2.13 68 1008.6
20260904195021 89 322 0.0 4.0 0.00 2.13 2.13 67 1008.7
20260904194515 90 229 2.0 2.0 0.00 2.13 2.13 70 1008.9
20260904194010 90 345 1.0 2.0 0.00 2.13 2.13 67 1008.8
20260904193505 89 348 0.0 2.0 0.00 2.13 2.13 69 1008.5
20260904193002 88 322 0.0 1.0 0.00 2.13 2.13 70 1008.6
20260904192501 90 343 0.0 2.0 0.00 2.13 2.13 66 1008.7
20260904191957 90 262 0.0 3.0 0.00 2.13 2.13 63 1008.8
20260904191453 89 304 3.0 3.0 0.00 2.13 2.13 61 1008.8
20260904190950 89 209 0.0 2.0 0.00 2.13 2.13 63 1008.9
20260904190445 89 239 1.0 2.0 0.00 2.13 2.13 64 1009.1
20260904185941 89 238 2.0 3.0 0.00 2.13 2.13 65 1009.0
20260904185437 89 294 3.0 3.0 0.00 2.13 2.13 65 1009.1
20260904184937 89 246 1.0 4.0 0.00 2.13 2.13 67 1009.2
20260904184431 90 310 3.0 3.0 0.00 2.13 2.13 65 1009.4
20260904183927 88 351 1.0 3.0 0.00 2.13 2.13 64 1009.3
20260904183422 89 229 0.0 3.0 0.00 2.13 2.13 64 1009.2
20260904182917 89 66 0.0 4.0 0.00 2.13 2.13 63 1009.4
20260904182413 89 294 0.0 3.0 0.00 2.13 2.13 64 1009.6
20260904181907 89 286 2.0 5.0 0.00 2.13 2.13 65 1009.7
20260904181402 89 352 0.0 2.0 0.00 2.13 2.13 66 1009.8
20260904180857 89 5 1.0 3.0 0.00 2.13 2.13 67 1009.7
20260904180353 89 105 0.0 2.0 0.00 2.13 2.13 66 1009.6
20260904175852 88 202 1.0 4.0 0.00 2.13 2.13 66 1009.7
20260904175350 88 10 0.0 3.0 0.00 2.13 2.13 66 1010.0
20260904174844 88 353 2.0 3.0 0.00 2.13 2.13 67 1009.8
20260904174341 88 108 0.0 4.0 0.00 2.13 2.13 70 1009.9
20260904173837 88 253 0.0 3.0 0.00 2.13 2.13 67 1010.0
20260904173332 86 283 2.0 5.0 0.00 2.13 2.13 67 1010.0
20260904172828 88 249 1.0 2.0 0.00 2.13 2.13 69 1010.1
20260904172327 86 299 1.0 4.0 0.00 2.13 2.13 67 1009.9
20260904171822 86 323 2.0 4.0 0.00 2.13 2.13 67 1009.9
20260904171317 85 262 3.0 4.0 0.00 2.13 2.13 67 1009.9
20260904170814 86 296 3.0 3.0 0.00 2.13 2.13 70 1009.9
20260904170309 86 294 3.0 3.0 0.00 2.13 2.13 70 1010.1
20260904165808 86 328 2.0 3.0 0.00 2.13 2.13 70 1009.9
20260904165305 86 349 0.0 3.0 0.00 2.13 2.13 73 1010.0
20260904164756 84 241 2.0 5.0 0.00 2.13 2.13 70 1010.0
20260904164252 86 0 3.0 4.0 0.00 2.13 2.13 70 1009.8
20260904163748 86 301 3.0 3.0 0.00 2.13 2.13 73 1010.2
20260904163243 86 326 0.0 4.0 0.00 2.13 2.13 70 1010.1
20260904162742 86 269 0.0 4.0 0.00 2.13 2.13 72 1010.1
20260904162237 86 272 1.0 4.0 0.00 2.13 2.13 72 1010.1
20260904161733 86 302 2.0 4.0 0.00 2.13 2.13 73 1010.3
20260904161233 85 2 2.0 4.0 0.00 2.13 2.13 73 1010.3
20260904160728 84 309 0.0 5.0 0.00 2.13 2.13 73 1010.2
20260904160224 85 349 3.0 4.0 0.00 2.13 2.13 73 1010.6
20260904155724 85 0 1.0 4.0 0.00 2.13 2.13 72 1010.5
20260904155223 85 251 3.0 4.0 0.00 2.13 2.13 73 1010.4
20260904154722 85 98 1.0 4.0 0.00 2.13 2.13 74 1010.5
20260904154216 85 306 2.0 3.0 0.00 2.13 2.13 75 1010.7
20260904153712 84 311 5.0 6.0 0.00 2.13 2.13 73 1010.4
20260904153207 85 308 3.0 4.0 0.00 2.13 2.13 74 1010.6
20260904152704 84 278 3.0 4.0 0.00 2.13 2.13 75 1010.6
20260904152159 84 294 2.0 4.0 0.00 2.13 2.13 77 1010.7
20260904151654 83 331 2.0 3.0 0.00 2.13 2.13 76 1010.6
20260904151152 83 342 0.0 3.0 0.00 2.13 2.13 76 1010.3
20260904150648 83 228 4.0 5.0 0.00 2.13 2.13 75 1010.5
20260904150144 83 356 2.0 5.0 0.00 2.13 2.13 75 1010.6
20260904145642 83 294 3.0 5.0 0.00 2.13 2.13 78 1010.5
20260904145137 82 277 1.0 3.0 0.00 2.13 2.13 79 1010.5
20260904144632 82 279 1.0 4.0 0.00 2.13 2.13 80 1010.6
20260904144128 82 265 2.0 4.0 0.00 2.13 2.13 81 1010.8
20260904143624 82 279 2.0 3.0 0.00 2.13 2.13 81 1010.9
20260904143120 82 303 4.0 5.0 0.00 2.13 2.13 79 1011.0
20260904142617 81 338 1.0 4.0 0.00 2.13 2.13 81 1011.0
20260904142112 81 245 2.0 5.0 0.00 2.13 2.13 82 1010.8
20260904141607 81 317 2.0 3.0 0.00 2.13 2.13 81 1010.6
20260904141103 81 285 2.0 4.0 0.00 2.13 2.13 83 1010.6
20260904140558 78 282 3.0 3.0 0.00 2.13 2.13 84 1010.7
20260904140052 78 300 2.0 3.0 0.00 2.13 2.13 88 1010.7
20260904135551 76 7 1.0 2.0 0.00 2.13 2.13 92 1010.6
20260904135048 75 337 1.0 3.0 0.00 2.13 2.13 95 1010.5
20260904134542 75 305 1.0 2.0 0.00 2.13 2.13 98 1010.4
20260904134036 74 321 2.0 3.0 0.00 2.13 2.13 98 1010.4
20260904133531 75 314 0.0 3.0 0.00 2.13 2.13 99 1010.5
20260904133027 75 255 0.0 3.0 0.00 2.13 2.13 99 1010.5
20260904132522 75 239 0.0 2.0 0.00 2.13 2.13 99 1010.8
20260904132021 75 297 1.0 2.0 0.00 2.13 2.13 99 1010.7
20260904131516 75 250 1.0 2.0 0.00 2.13 2.13 99 1010.6
20260904131012 75 280 1.0 2.0 0.00 2.13 2.13 99 1010.7
20260904130511 75 282 2.0 3.0 0.00 2.13 2.13 99 1010.7
20260904130006 75 102 2.0 3.0 0.00 2.13 2.13 99 1010.8
20260904125502 75 74 2.0 3.0 0.00 2.13 2.13 99 1010.7
20260904124956 75 107 2.0 3.0 0.00 2.13 2.13 99 1010.6
20260904124452 75 96 2.0 4.0 0.00 2.13 2.13 99 1010.9
20260904123948 74 93 2.0 4.0 0.00 2.13 2.13 99 1010.9
20260904123442 74 97 3.0 4.0 0.00 2.13 2.13 99 1011.0
20260904122938 74 73 3.0 4.0 0.00 2.13 2.13 99 1010.8
20260904122437 74 120 3.0 4.0 0.00 2.13 2.13 99 1010.9
20260904121931 74 93 3.0 3.0 0.00 2.13 2.13 99 1011.0
20260904121428 74 68 3.0 3.0 0.00 2.13 2.13 99 1011.3
20260904120919 74 60 3.0 4.0 0.00 2.13 2.13 99 1011.2
20260904120414 74 80 3.0 4.0 0.00 2.13 2.13 99 1011.0
20260904115910 74 104 2.0 3.0 0.00 2.13 2.13 99 1011.1
20260904115405 74 104 3.0 3.0 0.00 2.13 2.13 99 1011.1
20260904114859 74 65 3.0 3.0 0.00 2.13 2.13 99 1011.0
20260904114354 74 80 3.0 4.0 0.00 2.13 2.13 99 1011.0
20260904113849 73 117 3.0 3.0 0.00 2.13 2.13 99 1011.1
20260904113348 74 82 3.0 3.0 0.00 2.13 2.13 99 1011.0
20260904112843 73 96 2.0 3.0 0.00 2.13 2.13 99 1011.2
20260904112338 73 79 3.0 4.0 0.00 2.13 2.13 99 1011.2
20260904111834 73 66 3.0 5.0 0.00 2.13 2.13 99 1011.2
20260904111330 73 89 3.0 5.0 0.00 2.13 2.13 99 1010.9
20260904110825 73 60 5.0 5.0 0.00 2.13 2.13 99 1010.2
20260904110324 73 91 2.0 3.0 0.02 2.13 2.13 99 1010.1
20260904105824 72 75 3.0 3.0 0.00 2.13 2.13 99 1009.9
20260904105320 72 77 3.0 3.0 0.00 2.13 2.13 99 1009.7
20260904104814 72 113 3.0 4.0 0.00 2.13 2.13 99 1009.7
20260904104310 72 106 3.0 3.0 0.00 2.13 2.13 99 1009.8
20260904103807 71 103 3.0 3.0 0.00 2.13 2.13 99 1009.8
20260904103306 71 109 2.0 3.0 0.00 2.13 2.13 99 1009.7
20260904102802 71 101 2.0 3.0 0.00 2.13 2.13 99 1009.9
20260904102258 71 78 2.0 3.0 0.00 2.13 2.13 99 1009.9
20260904101753 71 100 2.0 3.0 0.00 2.13 2.13 99 1009.5
20260904101249 71 85 2.0 3.0 0.00 2.13 2.13 99 1009.5
20260904100744 71 102 2.0 3.0 0.00 2.13 2.13 99 1009.5
20260904100241 71 99 2.0 3.0 0.00 2.13 2.13 99 1009.7
20260904095741 71 79 3.0 3.0 0.00 2.13 2.13 99 1009.5
20260904095241 71 98 2.0 3.0 0.00 2.13 2.13 99 1009.7
20260904094736 71 94 2.0 3.0 0.00 2.13 2.13 99 1009.7
20260904094231 72 99 2.0 3.0 0.00 2.13 2.13 99 1009.7